This demonstration page uses our WeatherBlox Daily Observations layout. Learn more.

40.92945, -100.16068

Hourly Observations for January 9, 2020

Temp ( °F °C ) Dew Point ( °F °C ) Humidity (%) Winds ( mph kmh ) Pressure ( in mb ) Visibility ( mi km ) Precip ( " mm )
12:15 am 00:15 Clear 28 -2 27 -3 93 93 WSW 3 6 29.66 1004 10 16.0934 0 0
12:35 am 00:35 Clear 28 -2.5 26 -3.2 95 95 W 6 9 29.65 1004 10 16.0934 0 0
12:55 am 00:55 Clear 27 -3 26 -3.6 96 96 W 6 9 29.65 1004 10 16.0934 0 0
1:15 am 01:15 Clear 26 -3.3 25 -3.8 96 96 W 3 6 29.63 1003 10 16.0934 0 0
1:35 am 01:35 Clear 26 -3.4 25 -3.8 97 97 W 6 9 29.65 1004 10 16.0934 0 0
1:55 am 01:55 Clear 26 -3.3 25 -3.9 96 96 WNW 8 13 29.65 1004 10 16.0934 0 0
2:15 am 02:15 Clear 26 -3.1 25 -4 94 94 WNW 13 20 29.65 1004 10 16.0934 0 0
2:35 am 02:35 Clear 27 -3 25 -4.1 92 92 WNW 9 15 29.67 1005 10 16.0934 0 0
2:55 am 02:55 Clear 26 -3.4 24 -4.5 92 92 WNW 6 9 29.66 1004 10 16.0934 0 0
3:15 am 03:15 Clear 26 -3.6 23 -4.8 92 92 WNW 8 13 29.66 1004 10 16.0934 0 0
3:35 am 03:35 Clear 25 -3.7 23 -4.8 92 92 W 7 11 29.66 1004 10 16.0934 0 0
3:55 am 03:55 Clear 26 -3.6 24 -4.6 93 93 W 12 19 29.66 1004 10 16.0934 0 0
4:15 am 04:15 Clear 27 -3 24 -4.5 90 90 WNW 13 20 29.67 1005 10 16.0934 0 0
4:35 am 04:35 Clear 28 -2.5 24 -4.2 88 88 WNW 13 20 29.67 1005 10 16.0934 0 0
4:55 am 04:55 Clear 27 -2.6 24 -4.2 89 89 WNW 14 22 29.67 1005 10 16.0934 0 0
5:15 am 05:15 Clear 28 -2.2 25 -4.1 87 87 WNW 15 24 29.69 1005 10 16.0934 0 0
5:35 am 05:35 Clear 28 -2.2 25 -4.1 87 87 NW 9 15 29.71 1006 10 16.0934 0 0
5:55 am 05:55 Clear 28 -2.2 25 -3.8 89 89 NW 9 15 29.72 1006 10 16.0934 0 0
6:15 am 06:15 Clear 30 -1.2 26 -3.2 86 86 NW 13 20 29.72 1006 10 16.0934 0 0
6:35 am 06:35 Clear 31 -0.6 27 -2.8 85 85 NW 13 20 29.71 1006 10 16.0934 0 0
6:55 am 06:55 Clear 32 -0.2 27 -2.6 84 84 NW 18 30 29.72 1006 10 16.0934 0 0
7:15 am 07:15 Clear 32 0 28 -2.5 83 83 NW 21 33 29.73 1007 10 16.0934 0 0
7:35 am 07:35 Clear 32 -0.1 27 -2.6 83 83 NW 15 24 29.74 1007 10 16.0934 0 0
7:55 am 07:55 Clear 31 -0.5 27 -2.8 85 85 WNW 15 24 29.75 1007 10 16.0934 0 0
8:15 am 08:15 Sunny 31 -0.3 27 -2.6 85 85 WNW 13 20 29.77 1008 10 16.0934 0 0
8:35 am 08:35 Sunny 31 -0.5 27 -2.7 85 85 WNW 15 24 29.79 1009 10 16.0934 0 0
8:55 am 08:55 Sunny 31 -0.3 27 -2.6 85 85 WNW 14 22 29.8 1009 10 16.0934 0 0
9:15 am 09:15 Sunny 32 0 28 -2.3 85 85 WNW 14 22 29.82 1010 10 16.0934 0 0
9:35 am 09:35 Sunny 33 0.5 28 -2.1 83 83 WNW 13 20 29.83 1010 10 16.0934 0 0
9:55 am 09:55 Sunny 34 0.9 29 -1.8 82 82 WNW 13 20 29.85 1011 10 16.0934 0 0
10:15 am 10:15 Sunny 34 1.3 29 -1.8 80 80 WNW 16 26 29.85 1011 10 16.0934 0 0
10:35 am 10:35 Sunny 35 1.7 29 -1.7 78 78 WNW 16 26 29.86 1011 10 16.0934 0 0
10:55 am 10:55 Sunny 36 2 29 -1.5 78 78 WNW 16 26 29.86 1011 10 16.0934 0 0
11:15 am 11:15 Sunny 36 2 29 -1.4 78 78 NW 18 30 29.86 1011 10 16.0934 0 0
11:35 am 11:35 Sunny 36 2 30 -1.2 80 80 NW 16 26 29.86 1011 10 16.0934 0 0
11:55 am 11:55 Sunny 36 2.1 30 -1 80 80 WNW 16 26 29.85 1011 10 16.0934 0 0
12:15 pm 12:15 Sunny 37 2.5 31 -0.6 80 80 WNW 14 22 29.85 1011 10 16.0934 0 0
12:35 pm 12:35 Sunny 37 3 31 -0.5 78 78 WNW 14 22 29.85 1011 10 16.0934 0 0
12:55 pm 12:55 Sunny 38 3.4 32 -0.2 78 78 WNW 10 17 29.85 1011 10 16.0934 0 0
1:15 pm 13:15 Sunny 39 4 32 -0.1 75 75 WNW 14 22 29.85 1011 10 16.0934 0 0
1:35 pm 13:35 Sunny 40 4.5 32 0 73 73 WNW 14 22 29.84 1011 10 16.0934 0 0
1:55 pm 13:55 Sunny 41 5.2 32 0.2 70 70 WNW 15 24 29.85 1011 10 16.0934 0 0
2:10 pm 14:10 Sunny 42 5.3 33 0.3 70 70 NW 12 19 29.84 1010 10 16.0934 0 0
2:35 pm 14:35 Sunny 43 5.9 33 0.3 68 68 NW 10 17 29.84 1010 10 16.0934 0 0
2:55 pm 14:55 Sunny 42 5.8 32 0.2 68 68 WNW 8 13 29.85 1011 10 16.0934 0 0
3:15 pm 15:15 Sunny 43 6.2 33 0.5 67 67 NW 6 9 29.85 1011 10 16.0934 0 0
3:35 pm 15:35 Sunny 44 6.4 32 0.2 65 65 NNW 6 9 29.84 1011 10 16.0934 0 0
3:55 pm 15:55 Sunny 43 6.3 32 0 64 64 NNW 3 6 29.86 1011 10 16.0934 0 0
4:15 pm 16:15 Sunny 43 6 32 0.1 66 66 NNW 5 7 29.86 1011 10 16.0934 0 0
4:35 pm 16:35 Sunny 41 5.1 33 0.4 72 72 W 5 7 29.89 1012 10 16.0934 0 0
4:55 pm 16:55 Sunny 39 4.1 32 0.2 76 76 WNW 3 6 29.91 1013 10 16.0934 0 0
5:15 pm 17:15 Sunny 38 3.3 32 0 79 79 NW 3 6 29.92 1013 10 16.0934 0 0
5:35 pm 17:35 Clear 37 2.7 32 -0.2 81 81 NNW 3 6 29.94 1014 10 16.0934 0 0
5:55 pm 17:55 Clear 35 1.5 30 -0.9 84 84 Calm 29.97 1015 10 16.0934 0 0
6:15 pm 18:15 Clear 34 1.2 31 -0.6 88 88 Calm 29.98 1015 10 16.0934 0 0
6:35 pm 18:35 Clear 35 1.4 31 -0.4 88 88 Calm 29.98 1015 10 16.0934 0 0
6:55 pm 18:55 Clear 32 0 30 -1.1 92 92 E 5 7 30 1016 10 16.0934 0 0
7:15 pm 19:15 Clear 34 0.9 30 -0.9 88 88 E 3 6 29.99 1015 10 16.0934 0 0
7:35 pm 19:35 Clear 32 0 29 -1.7 88 88 E 3 6 30.01 1016 10 16.0934 0 0
7:55 pm 19:55 Clear 31 -0.7 28 -2 91 91 Calm 30.02 1017 10 16.0934 0 0
8:15 pm 20:15 Clear 31 -0.5 28 -2 90 90 NE 5 7 30.02 1017 10 16.0934 0 0
8:35 pm 20:35 Clear 31 -0.5 29 -1.9 90 90 NE 5 7 30.02 1017 10 16.0934 0 0
8:55 pm 20:55 Clear 30 -1 28 -2 93 93 ENE 6 9 30.03 1017 10 16.0934 0 0
9:15 pm 21:15 Clear 32 0 29 -1.5 90 90 ENE 7 11 30.02 1016 10 16.0934 0 0
9:35 pm 21:35 Clear 31 -0.5 29 -1.5 93 93 ENE 5 7 30.02 1017 10 16.0934 0 0
9:55 pm 21:55 Clear 31 -0.3 29 -1.4 92 92 ENE 6 9 30.02 1017 10 16.0934 0 0
10:15 pm 22:15 Clear 32 0 30 -1.3 91 91 ENE 7 11 30.02 1016 10 16.0934 0 0
10:35 pm 22:35 Clear 32 0 30 -1.1 92 92 ENE 9 15 30.02 1016 10 16.0934 0 0
10:55 pm 22:55 Partly Cloudy 32 0 30 -1.3 91 91 E 9 15 30.03 1017 10 16.0934 0 0
11:15 pm 23:15 Cloudy 32 -0.1 29 -1.5 90 90 E 8 13 30.04 1017 10 16.0934 0 0
11:35 pm 23:35 Cloudy 31 -0.5 29 -1.5 93 93 E 8 13 30.03 1017 10 16.0934 0 0
11:55 pm 23:55 Mostly Cloudy 31 -0.7 29 -1.7 93 93 E 9 15 30.03 1017 10 16.0934 0 0

Powered by AerisWeather